Other Public Products
Issued by NWS Grand Forks, ND

Home | Current Version | Previous Version | Graphics & Text | Print | Product List | Glossary On
Versions: 1 2 3 4 5 6 7 8 9 10 11 12 13 14 15 16 17 18 19 20 21 22 23 24 25 26 27 28 29 30 31 32 33 34 35 36 37 38 39 40 41 42 43 44 45 46 47 48 49 50
000
FPUS83 KFGF 190831
OPUFGF
PRAIRIE TO PINES WEATHER ROUNDUP
NATIONAL WEATHER SERVICE EASTERN NORTH DAKOTA/GRAND FORKS ND
200 AM CST SUN FEB 19 2017

 **SATELLITE DATA USED TO AUGMENT SKY COVER AT AUTOMATED STATIONS**
 *****  WEATHER ACROSS EASTERN NORTH DAKOTA  *****

CITY           SKY/WX    TMP DP  RH WIND       PRES   REMARKS
GRAND FORKS    CLOUDY    36  30  79 NE6       29.83R
GRAND FORKS AF CLOUDY    35  32  90 E6        29.82S
GRAND CITY NWS NOT AVBL
BUXTON         NOT AVBL
DEVILS LAKE    CLOUDY    35  31  85 E15       29.77S
FARGO          FAIR      34  33  96 E7        29.79S
WAHPETON ARPT  FAIR      36  32  87 SE9       29.80S
$$

 *****  WEATHER ACROSS CENTRAL AND WESTERN NORTH DAKOTA  *****

CITY           SKY/WX    TMP DP  RH WIND       PRES   REMARKS
JAMESTOWN      FAIR      35  34  96 E15       29.71F
BISMARCK       FAIR      34  32  92 E10       29.66F
MINOT          FAIR      32  29  88 NE7       29.69F
MINOT AFB      FAIR      30  28  91 E7        29.70F WCI  24
GARRISON         N/A     33  30  88 E12       29.66F WCI  24
WILLISTON      FAIR      32  29  88 E7        29.64S
DICKINSON      CLOUDY    28  27  96 NE7       29.56F FOG     WCI  21
HETTINGER      CLOUDY    35  31  85 E5        29.59F
$$

 *****  OTHER OBSERVATIONS NORTHEAST NORTH DAKOTA  *****

CITY           SKY/WX    TMP DP  RH WIND       PRES   REMARKS
WALHALLA       NOT AVBL
LANGDON        NOT AVBL
CAVALIER       CLOUDY    32  32 100 CALM      29.85R
GRAFTON        CLOUDY    34  34 100 NE5       29.85S
CANDO          NOT AVBL
FORT TOTTEN      N/A     35  32  89 E12       29.95S
ROLLA          CLOUDY    32  32 100 E12       29.78S WCI  23
RUGBY            N/A     32  32 100 E17       29.73S WCI  21
 ***** THE ABOVE OBSERVATIONS ARE NON NWS ARE NOT QUALITY
        CONTROLLED AND MAY MIS-REPORT RAIN FOR SNOW...
$$

 *****  OTHER OBSERVATIONS SOUTHEAST NORTH DAKOTA *****

CITY           SKY/WX    TMP DP  RH WIND       PRES   REMARKS
COOPERSTOWN    PTSUNNY   34  34 100 E14       29.77F WCI  24
VALLEY CITY    FAIR      34  34 100 E8        29.77F
OAKES          NOT AVBL
GWINNER        FAIR      36  36 100 E3        29.75S
SHEYENNE NWR     N/A     32  32 100 E7        29.95S
BUFFALO        NOT AVBL
WYNDMERE         N/A     34  34 100 SE6         N/A
 ***** THE ABOVE OBSERVATIONS ARE NON NWS ARE NOT QUALITY
       CONTROLLED AND MAY MIS-REPORT RAIN FOR SNOW...
$$

  *****  WEATHER ACROSS NORTHERN MINNESOTA  *****

CITY           SKY/WX    TMP DP  RH WIND       PRES   REMARKS
FLAG ISLAND    CLOUDY    28  27  93 N3        29.87R
WARROAD        FAIR      30  27  86 CALM      29.87S
ROSEAU         FAIR      30  27  86 CALM      29.86S
HALLOCK        CLOUDY    34  30  86 E5        29.85R
THF RVR FALLS  CLOUDY    34  32  92 NE7       29.85S
HALSTAD          N/A     33  32  95 E8          N/A
FOSSTON        FAIR      32  30  93 E5        29.85R
BAUDETTE       FAIR      30  27  88 CALM      29.85R
WASKISH        FAIR      30  30 100 CALM      29.86S
CROOKSTON      CLOUDY    36  34  93 E6        29.84S
$$
  *****  WEATHER ACROSS CENTRAL AND WEST MINNESOTA  *****

CITY           SKY/WX    TMP DP  RH WIND       PRES   REMARKS
BEMIDJI        FAIR      31  30  96 CALM      29.85R
PARK RAPIDS    FAIR      30  27  88 S3        29.84R
WADENA         FAIR      32  32 100 E3        29.84F
DETROIT LAKES  FAIR      36  34  93 E3        29.83S
MOORHEAD       FAIR      37  34  87 E7        29.81R
FERGUS FALLS   FAIR      39  36  87 SE7       29.84F
ELBOW LAKE     FAIR      39  36  87 SE9       29.82S
MORRIS MN      FAIR      36  34  93 SE8       29.82R
STAPLES        FAIR      30  30 100 CALM      29.86S FOG
WHEATON        FAIR      36  34  93 SE10      29.82S
$$
  *****  WEATHER ELSEWHERE ACROSS MINNESOTA  *****

CITY           SKY/WX    TMP DP  RH WIND       PRES   REMARKS
DULUTH         FAIR      38  31  76 NW5       29.86R
INTRNTL FALLS  CLOUDY    29  27  92 W3        29.86R
ELY            FAIR      27  27 100 CALM      29.87R
CLOQUET        FAIR      37  30  75 CALM      29.87R
BRAINERD       FAIR      30  29  96 CALM      29.87R
HIBBING        FAIR      31  31 100 CALM      29.86R
ALEXANDRIA     FAIR      35  32  88 SE7       29.85R
SAINT CLOUD    FAIR      30  30 100 CALM      29.88R
MINNEAPOLIS    FAIR      36  32  85 CALM      29.88R
$$

  *****  WEATHER ACROSS SOUTH DAKOTA  *****

CITY           SKY/WX    TMP DP  RH WIND       PRES   REMARKS
SIOUX FALLS    FAIR      37  35  92 E3        29.81S
BROOKINGS      FAIR      41  37  86 S15       29.80
WATERTOWN      FAIR      37  35  92 S8        29.78S
HURON          FAIR      37  34  89 SE8       29.75S
SISSETON         N/A     35  35 100 SE8       29.78F
ABERDEEN       FAIR      39  32  76 S14       29.73S
MITCHELL       FAIR      39  35  86 SE8       29.77S
PIERRE         FAIR      41  31  67 E8        29.66F
MOBRIDGE       FAIR      40  31  70 SE13      29.62F
RAPID CITY     FAIR      42  30  62 CALM      29.60F
$$

  *****  SOME WEATHER IN NEARBY STATES *****

CITY           SKY/WX    TMP DP  RH WIND       PRES   REMARKS
GLASGOW MT     FAIR      33  30  88 SE13G21   29.52F WCI  24
GREAT FALLS MT FAIR      45  29  53 S12       29.36S
CHEYENNE WY    FAIR      36  23  59 NW5       29.68S
SCOTTSBLUFF NE FAIR      41  29  62 E6        29.65F
OMAHA NE       MOCLDY    42  32  67 S5        29.83F
DES MOINES IA  FAIR      45  38  76 SE3       29.90R
DAVENPORT IA   FAIR      34  31  88 CALM      29.91R
CHICAGO IL     FAIR      39  34  82 CALM      29.88R
EAU CLAIRE WI  FAIR      32  32 100 CALM      29.88R
LA CROSSE WI   FAIR      35  31  85 SE5       29.89S
$$

  *****  SOME NATIONAL WEATHER *****

CITY           SKY/WX    TMP DP  RH WIND       PRES   REMARKS
LA GUARDIA NY  MOCLDY    60  32  34 SW8       29.69R
RALEIGH NC     FAIR      50  43  77 W7        29.90F
ATLANTA GA     MOCLDY    53  51  93 SW3       29.98S
NEW ORLEANS LA FAIR      61  61 100 S6        29.96S
OKLAHOMA CITY  FAIR      47  46  97 SE6       29.87R
ALBUQUERQUE NM MOCLDY    44  29  55 NE7       29.78F
SALT LAKE CITY CLOUDY    48  35  60 SE12      29.59S
LOS ANGELES CA FAIR      53  51  93 CALM      29.74S
BOISE ID       MOCLDY    43  40  89 E6        29.50F
SEATTLE WA     NOT AVBL
$$

*** WEATHER ACROSS MANITOBA...SASKATCHEWAN AND ONTARIO ***
                ***ONTARIO***

CITY           SKY/WX    TMP DP  RH WIND       PRES   REMARKS
GERALDTON      CLOUDY    34  30  86 W10G17    29.72R
THUNDER BAY    MOCLDY    37  28  70 W7        29.82R
SIOUX LOOKOUT  CLOUDY    32  25  74 NW6       29.84R
TORONTO        MOCLDY    43  34  70 NW15      29.74R
BIG TROUT LK   CLOUDY    23  21  93 N6        29.83R WCI  16
PICKLE LAKE    NOT AVBL
DRYDEN         CLOUDY    32  27  80 NW5       29.85R
KENORA         MOCLDY    30  27  86 NW2       29.85R
$$
                *** MANITOBA***

CITY           SKY/WX    TMP DP  RH WIND       PRES   REMARKS
BRANDON        MOCLDY    30  28  93 E12       29.81S WCI  21
DAUPHIN        PTCLDY    23  21  93 NE6       29.84F WCI  16
ISLAND LAKE    PTCLDY    14  10  85 NW6       29.89R WCI   5
PILOT MOUND      N/A     34  30  86 E9          N/A
THE PAS        CLEAR     23  21  93 NE3       29.88R
THOMPSON       CLOUDY    18  14  86 SW2       29.89R
WINNIPEG       MOCLDY    28  27  93 NE6       29.86S WCI  22
LYNN LAKE      CLOUDY    18  18 100 NW7       29.86R WCI   8
CHURCHILL      PTCLDY    -4  -8  84 E8        29.98S WCI -19
GILLAM         FLURRIES  14   9  79 NE6       29.90R WCI   5
$$
                ***SASKATCHEWAN***

CITY           SKY/WX    TMP DP  RH WIND       PRES   REMARKS
ESTEVAN        PTCLDY    32  28  86 E15       29.68F WCI  22
KINDERSLEY     LGT RAIN  34  30  86 E24G32    29.47F WCI  21
LLOYDMINSTER   LGT SNOW  30  30 100 E22       29.54F WCI  17
PRINCE ALBERT  CLOUDY    25  23  93 E10       29.74F WCI  15
REGINA         PTCLDY    32  27  80 E15       29.67S WCI  22
YORKTON        CLEAR     28  25  86 E7        29.75F WC



USA.gov is the U.S. government's official web portal to all federal, state and local government web resources and services.